TAM3840 SBBR-SBSN

Flight info

Callsign TAM3840
Flight time 2h 21m
Altitude 36000
Route ILKUS UL452 TORAX DCT STM
Aircraft A320/M-SDE3FGHIRWY/LB1

Departure

Time 2026-04-23 14:07
Airport Presidente Juscelino Kubitschek International Airport (SBBR)

Arrival

Time 2026-04-23 16:28
Airport Santarém - Maestro Wilson Fonseca International Airport (SBSN)
Time Latitude Longitude Altitude Speed Heading
2026-04-23 13:28 -15.87275 -47.91980 3464 ft 0 kts 356°
2026-04-23 13:28 -15.87274 -47.91980 3465 ft 0 kts 356°
2026-04-23 13:50 -15.87284 -47.91979 3464 ft 3 kts 355°
2026-04-23 13:50 -15.87309 -47.91978 3464 ft 3 kts
2026-04-23 13:50 -15.87327 -47.91985 3464 ft 2 kts 64°
2026-04-23 13:50 -15.87335 -47.92007 3464 ft 3 kts 84°
2026-04-23 13:51 -15.87336 -47.92028 3464 ft 0 kts 86°
2026-04-23 13:57 -15.87336 -47.92017 3576 ft 3 kts 86°
2026-04-23 13:57 -15.87333 -47.91980 3464 ft 7 kts 86°
2026-04-23 13:57 -15.87329 -47.91916 3464 ft 11 kts 86°
2026-04-23 13:57 -15.87323 -47.91831 3464 ft 12 kts 86°
2026-04-23 13:58 -15.87317 -47.91739 3464 ft 11 kts 86°
2026-04-23 13:58 -15.87328 -47.91668 3464 ft 10 kts 146°
2026-04-23 13:58 -15.87396 -47.91663 3464 ft 10 kts 176°
2026-04-23 13:58 -15.87459 -47.91658 3464 ft 9 kts 176°
2026-04-23 13:59 -15.87520 -47.91654 3464 ft 9 kts 176°
2026-04-23 13:59 -15.87592 -47.91650 3463 ft 12 kts 177°
2026-04-23 13:59 -15.87683 -47.91644 3461 ft 14 kts 174°
2026-04-23 13:59 -15.87738 -47.91707 3462 ft 13 kts 265°
2026-04-23 14:00 -15.87742 -47.91765 3463 ft 11 kts 265°
2026-04-23 14:00 -15.87748 -47.91860 3465 ft 10 kts 266°
2026-04-23 14:00 -15.87754 -47.91939 3467 ft 12 kts 266°
2026-04-23 14:00 -15.87759 -47.92038 3469 ft 15 kts 266°
2026-04-23 14:01 -15.87768 -47.92158 3508 ft 18 kts 265°
2026-04-23 14:01 -15.87779 -47.92299 3475 ft 21 kts 267°
2026-04-23 14:01 -15.87788 -47.92463 3476 ft 23 kts 267°
2026-04-23 14:01 -15.87797 -47.92620 3476 ft 20 kts 266°
2026-04-23 14:02 -15.87806 -47.92749 3479 ft 16 kts 266°
2026-04-23 14:02 -15.87813 -47.92857 3481 ft 15 kts 267°
2026-04-23 14:02 -15.87819 -47.92967 3480 ft 16 kts 266°
2026-04-23 14:02 -15.87826 -47.93086 3484 ft 16 kts 266°
2026-04-23 14:03 -15.87834 -47.93200 3487 ft 16 kts 266°
2026-04-23 14:03 -15.87841 -47.93313 3495 ft 16 kts 266°
2026-04-23 14:03 -15.87849 -47.93434 3506 ft 18 kts 266°
2026-04-23 14:03 -15.87859 -47.93575 3501 ft 21 kts 265°
2026-04-23 14:04 -15.87869 -47.93729 3506 ft 20 kts 266°
2026-04-23 14:04 -15.87877 -47.93857 3516 ft 16 kts 266°
2026-04-23 14:04 -15.87890 -47.93962 3512 ft 14 kts 246°
2026-04-23 14:04 -15.87961 -47.93995 3512 ft 10 kts 179°
2026-04-23 14:05 -15.88024 -47.93991 3511 ft 8 kts 176°
2026-04-23 14:05 -15.88065 -47.93971 3511 ft 6 kts 113°
2026-04-23 14:05 -15.88064 -47.93945 3510 ft 0 kts 85°
2026-04-23 14:06 -15.88064 -47.93937 3514 ft 5 kts 85°
2026-04-23 14:06 -15.88051 -47.93753 3506 ft 59 kts 86°
2026-04-23 14:06 -15.88010 -47.93095 3485 ft 121 kts 86°
2026-04-23 14:06 -15.87940 -47.92043 3498 ft 167 kts 86°
2026-04-23 14:07 -15.87845 -47.90824 4176 ft 169 kts 86°
2026-04-23 14:07 -15.87701 -47.88731 5074 ft 188 kts 86°
2026-04-23 14:07 -15.87614 -47.87298 5366 ft 209 kts 86°
2026-04-23 14:08 -15.87517 -47.85720 5774 ft 230 kts 86°
2026-04-23 14:08 -15.87396 -47.83991 6276 ft 252 kts 85°
2026-04-23 14:08 -15.87266 -47.82123 6866 ft 263 kts 86°
2026-04-23 14:08 -15.87140 -47.80212 7701 ft 267 kts 87°
2026-04-23 14:09 -15.86907 -47.78285 8531 ft 273 kts 75°
2026-04-23 14:09 -15.86010 -47.76512 9237 ft 286 kts 51°
2026-04-23 14:09 -15.84404 -47.75248 9920 ft 299 kts 26°
2026-04-23 14:09 -15.82350 -47.74762 10130 ft 308 kts 359°
2026-04-23 14:10 -15.80213 -47.75277 10188 ft 333 kts 337°
2026-04-23 14:10 -15.78049 -47.76264 10579 ft 348 kts 336°
2026-04-23 14:10 -15.75772 -47.77309 10934 ft 364 kts 337°
2026-04-23 14:10 -15.73436 -47.78375 11531 ft 369 kts 338°
2026-04-23 14:11 -15.71069 -47.79446 12180 ft 373 kts 338°
2026-04-23 14:11 -15.68683 -47.80520 12811 ft 376 kts 338°
2026-04-23 14:11 -15.66277 -47.81627 13413 ft 381 kts 336°
2026-04-23 14:11 -15.63878 -47.82821 14002 ft 384 kts 335°
2026-04-23 14:12 -15.61478 -47.84075 14533 ft 388 kts 335°
2026-04-23 14:12 -15.59065 -47.85361 15054 ft 391 kts 334°
2026-04-23 14:12 -15.56639 -47.86653 15562 ft 394 kts 334°
2026-04-23 14:12 -15.54191 -47.87947 16073 ft 396 kts 335°
2026-04-23 14:13 -15.51720 -47.89239 16578 ft 399 kts 335°
2026-04-23 14:13 -15.49226 -47.90532 17074 ft 402 kts 335°
2026-04-23 14:13 -15.46711 -47.91829 17574 ft 405 kts 335°
2026-04-23 14:13 -15.44179 -47.93134 18050 ft 408 kts 335°
2026-04-23 14:14 -15.41628 -47.94451 18504 ft 411 kts 335°
2026-04-23 14:14 -15.39062 -47.95776 18904 ft 414 kts 335°
2026-04-23 14:14 -15.36480 -47.97111 19310 ft 416 kts 335°
2026-04-23 14:14 -15.33882 -47.98458 19712 ft 418 kts 335°
2026-04-23 14:15 -15.31275 -47.99807 20107 ft 420 kts 335°
2026-04-23 14:15 -15.28650 -48.01161 20512 ft 422 kts 335°
2026-04-23 14:15 -15.26023 -48.02514 20906 ft 424 kts 335°
2026-04-23 14:15 -15.23379 -48.03878 21286 ft 426 kts 335°
2026-04-23 14:16 -15.20723 -48.05248 21684 ft 428 kts 335°
2026-04-23 14:16 -15.18050 -48.06626 22057 ft 429 kts 335°
2026-04-23 14:16 -15.15368 -48.08009 22427 ft 432 kts 335°
2026-04-23 14:16 -15.12678 -48.09393 22785 ft 434 kts 335°
2026-04-23 14:17 -15.09965 -48.10786 23145 ft 436 kts 335°
2026-04-23 14:17 -15.07246 -48.12185 23503 ft 438 kts 335°
2026-04-23 14:17 -15.04513 -48.13593 23811 ft 440 kts 335°
2026-04-23 14:17 -15.01769 -48.15008 24080 ft 442 kts 335°
2026-04-23 14:18 -14.99010 -48.16432 24343 ft 444 kts 335°
2026-04-23 14:18 -14.96238 -48.17863 24630 ft 447 kts 335°
2026-04-23 14:18 -14.93446 -48.19303 24893 ft 449 kts 335°
2026-04-23 14:18 -14.90650 -48.20758 25167 ft 451 kts 334°
2026-04-23 14:19 -14.87869 -48.22276 25434 ft 453 kts 333°
2026-04-23 14:19 -14.85096 -48.23843 25707 ft 455 kts 333°
2026-04-23 14:19 -14.82323 -48.25438 25984 ft 457 kts 332°
2026-04-23 14:19 -14.79540 -48.27043 26250 ft 459 kts 332°
2026-04-23 14:20 -14.76742 -48.28645 26523 ft 461 kts 333°
2026-04-23 14:20 -14.73920 -48.30244 26797 ft 463 kts 333°
2026-04-23 14:20 -14.71087 -48.31834 27071 ft 465 kts 333°
2026-04-23 14:20 -14.68243 -48.33424 27335 ft 467 kts 333°
2026-04-23 14:21 -14.65375 -48.35027 27593 ft 469 kts 333°
2026-04-23 14:21 -14.62498 -48.36633 27828 ft 471 kts 333°
2026-04-23 14:21 -14.59606 -48.38245 28070 ft 474 kts 333°
2026-04-23 14:21 -14.56703 -48.39866 28315 ft 475 kts 333°
2026-04-23 14:22 -14.53789 -48.41495 28560 ft 477 kts 333°
2026-04-23 14:22 -14.50864 -48.43134 28796 ft 479 kts 333°
2026-04-23 14:22 -14.47931 -48.44784 29030 ft 481 kts 333°
2026-04-23 14:22 -14.44979 -48.46444 29262 ft 483 kts 333°
2026-04-23 14:23 -14.42026 -48.48101 29482 ft 485 kts 334°
2026-04-23 14:23 -14.39055 -48.49766 29699 ft 487 kts 334°
2026-04-23 14:23 -14.36066 -48.51439 29924 ft 489 kts 334°
2026-04-23 14:23 -14.33071 -48.53114 30141 ft 491 kts 334°
2026-04-23 14:24 -14.30068 -48.54793 30379 ft 491 kts 334°
2026-04-23 14:24 -14.27070 -48.56470 30679 ft 490 kts 334°
2026-04-23 14:24 -14.24079 -48.58140 30981 ft 488 kts 334°
2026-04-23 14:24 -14.21096 -48.59805 31275 ft 487 kts 334°
2026-04-23 14:25 -14.18112 -48.61469 31564 ft 486 kts 334°
2026-04-23 14:25 -14.15140 -48.63130 31852 ft 486 kts 334°
2026-04-23 14:25 -14.12175 -48.64789 32156 ft 484 kts 334°
2026-04-23 14:25 -14.09216 -48.66445 32448 ft 484 kts 334°
2026-04-23 14:26 -14.06264 -48.68096 32740 ft 483 kts 334°
2026-04-23 14:26 -14.03316 -48.69742 33030 ft 482 kts 334°
2026-04-23 14:26 -14.00371 -48.71381 33328 ft 481 kts 334°
2026-04-23 14:26 -13.97430 -48.73015 33635 ft 480 kts 334°
2026-04-23 14:27 -13.94492 -48.74643 33943 ft 479 kts 334°
2026-04-23 14:27 -13.91556 -48.76273 34227 ft 478 kts 334°
2026-04-23 14:27 -13.88640 -48.77897 34504 ft 477 kts 334°
2026-04-23 14:27 -13.85720 -48.79527 34776 ft 476 kts 334°
2026-04-23 14:28 -13.82813 -48.81149 35036 ft 475 kts 334°
2026-04-23 14:28 -13.79908 -48.82768 35283 ft 475 kts 334°
2026-04-23 14:28 -13.77008 -48.84382 35537 ft 474 kts 334°
2026-04-23 14:28 -13.74107 -48.85996 35768 ft 473 kts 334°
2026-04-23 14:29 -13.71213 -48.87602 35962 ft 473 kts 334°
2026-04-23 14:29 -13.68321 -48.89208 36021 ft 472 kts 334°
2026-04-23 14:29 -13.62542 -48.92413 36016 ft 472 kts 334°
2026-04-23 14:30 -13.56763 -48.95621 36019 ft 472 kts 334°
2026-04-23 14:30 -13.50979 -48.98835 36016 ft 472 kts 334°
2026-04-23 14:31 -13.45199 -49.02048 36013 ft 473 kts 334°
2026-04-23 14:31 -13.39409 -49.05251 36013 ft 473 kts 334°
2026-04-23 14:32 -13.33609 -49.08460 36014 ft 473 kts 334°
2026-04-23 14:32 -13.27807 -49.11671 36015 ft 474 kts 334°
2026-04-23 14:33 -13.21993 -49.14886 36014 ft 474 kts 334°
2026-04-23 14:33 -13.16184 -49.18097 36011 ft 474 kts 334°
2026-04-23 14:34 -13.10370 -49.21317 36009 ft 475 kts 334°
2026-04-23 14:34 -13.04557 -49.24530 36010 ft 475 kts 335°
2026-04-23 14:35 -12.98737 -49.27736 36011 ft 475 kts 335°
2026-04-23 14:35 -12.92948 -49.30926 36011 ft 475 kts 335°
2026-04-23 14:36 -12.87080 -49.34164 36012 ft 475 kts 335°
2026-04-23 14:36 -12.81258 -49.37379 36010 ft 475 kts 335°
2026-04-23 14:37 -12.75439 -49.40586 36006 ft 475 kts 335°
2026-04-23 14:37 -12.69619 -49.43783 36003 ft 475 kts 335°
2026-04-23 14:38 -12.63802 -49.46984 36002 ft 475 kts 335°
2026-04-23 14:38 -12.57981 -49.50191 36000 ft 475 kts 335°
2026-04-23 14:39 -12.52163 -49.53393 36004 ft 475 kts 335°
2026-04-23 14:39 -12.46342 -49.56591 36003 ft 475 kts 335°
2026-04-23 14:40 -12.40515 -49.59786 36005 ft 476 kts 335°
2026-04-23 14:40 -12.34676 -49.62984 36005 ft 476 kts 335°
2026-04-23 14:41 -12.28849 -49.66187 36007 ft 475 kts 335°
2026-04-23 14:41 -12.23022 -49.69394 36005 ft 475 kts 335°
2026-04-23 14:42 -12.17198 -49.72587 36002 ft 475 kts 335°
2026-04-23 14:42 -12.11369 -49.75764 36000 ft 475 kts 335°
2026-04-23 14:43 -12.05538 -49.78955 35995 ft 475 kts 335°
2026-04-23 14:43 -11.99755 -49.82129 35995 ft 475 kts 335°
2026-04-23 14:44 -11.93925 -49.85307 35996 ft 475 kts 335°
2026-04-23 14:44 -11.88095 -49.88493 35997 ft 476 kts 335°
2026-04-23 14:45 -11.82266 -49.91688 35999 ft 476 kts 335°
2026-04-23 14:45 -11.76430 -49.94879 36000 ft 475 kts 336°
2026-04-23 14:46 -11.70598 -49.98055 35998 ft 475 kts 336°
2026-04-23 14:46 -11.64767 -50.01231 35996 ft 475 kts 336°
2026-04-23 14:47 -11.58940 -50.04410 35994 ft 475 kts 336°
2026-04-23 14:47 -11.54096 -50.07057 35991 ft 475 kts 336°
2026-04-23 14:48 -11.48272 -50.10237 35990 ft 475 kts 336°
2026-04-23 14:48 -11.42446 -50.13408 35990 ft 475 kts 336°
2026-04-23 14:49 -11.36613 -50.16574 35989 ft 475 kts 336°
2026-04-23 14:49 -11.30790 -50.19743 35984 ft 475 kts 336°
2026-04-23 14:50 -11.24925 -50.22931 35989 ft 475 kts 336°
2026-04-23 14:50 -11.19096 -50.26098 35988 ft 475 kts 336°
2026-04-23 14:51 -11.13265 -50.29267 35994 ft 475 kts 336°
2026-04-23 14:51 -11.07433 -50.32442 35999 ft 475 kts 336°
2026-04-23 14:52 -11.01591 -50.35607 36001 ft 475 kts 336°
2026-04-23 14:52 -10.95751 -50.38758 36008 ft 475 kts 336°
2026-04-23 14:53 -10.89917 -50.41910 36009 ft 475 kts 336°
2026-04-23 14:53 -10.84085 -50.45060 36008 ft 475 kts 336°
2026-04-23 14:54 -10.78254 -50.48208 36006 ft 474 kts 336°
2026-04-23 14:54 -10.72420 -50.51358 36007 ft 474 kts 336°
2026-04-23 14:55 -10.66591 -50.54498 36006 ft 474 kts 336°
2026-04-23 14:55 -10.60763 -50.57640 36003 ft 474 kts 336°
2026-04-23 14:56 -10.54936 -50.60783 36002 ft 474 kts 336°
2026-04-23 14:56 -10.49114 -50.63931 36003 ft 474 kts 336°
2026-04-23 14:57 -10.43288 -50.67063 36005 ft 473 kts 336°
2026-04-23 14:57 -10.37426 -50.70099 36008 ft 473 kts 338°
2026-04-23 14:58 -10.25725 -50.76090 36004 ft 472 kts 337°
2026-04-23 14:59 -10.19871 -50.79129 36002 ft 472 kts 337°
2026-04-23 14:59 -10.14016 -50.82161 36005 ft 472 kts 337°
2026-04-23 15:00 -10.08155 -50.85184 36014 ft 473 kts 337°
2026-04-23 15:00 -10.02297 -50.88208 36013 ft 472 kts 337°
2026-04-23 15:01 -9.96439 -50.91236 36013 ft 472 kts 337°
2026-04-23 15:01 -9.90585 -50.94251 36018 ft 472 kts 337°
2026-04-23 15:02 -9.84732 -50.97264 36020 ft 472 kts 337°
2026-04-23 15:02 -9.78882 -51.00277 36020 ft 472 kts 337°
2026-04-23 15:03 -9.73030 -51.03294 36020 ft 471 kts 337°
2026-04-23 15:03 -9.67191 -51.06304 36014 ft 471 kts 337°
2026-04-23 15:04 -9.61359 -51.09315 36018 ft 470 kts 337°
2026-04-23 15:04 -9.55523 -51.12311 36021 ft 470 kts 337°
2026-04-23 15:05 -9.49693 -51.15306 36017 ft 470 kts 337°
2026-04-23 15:05 -9.43863 -51.18308 36017 ft 470 kts 337°
2026-04-23 15:06 -9.38038 -51.21309 36019 ft 470 kts 337°
2026-04-23 15:06 -9.32212 -51.24299 36021 ft 469 kts 337°
2026-04-23 15:07 -9.26389 -51.27291 36021 ft 469 kts 337°
2026-04-23 15:07 -9.20566 -51.30282 36021 ft 469 kts 337°
2026-04-23 15:08 -9.14739 -51.33266 36020 ft 469 kts 337°
2026-04-23 15:09 -9.06018 -51.37739 36019 ft 468 kts 336°
2026-04-23 15:09 -9.00214 -51.40721 36019 ft 468 kts 337°
2026-04-23 15:10 -8.95385 -51.43191 36016 ft 468 kts 337°
2026-04-23 15:10 -8.88604 -51.46664 36014 ft 467 kts 336°
2026-04-23 15:11 -8.82805 -51.49632 36012 ft 467 kts 336°
2026-04-23 15:11 -8.77020 -51.52602 36006 ft 466 kts 336°
2026-04-23 15:12 -8.71231 -51.55567 36010 ft 466 kts 336°
2026-04-23 15:12 -8.65447 -51.58526 36012 ft 466 kts 336°
2026-04-23 15:13 -8.59665 -51.61478 36014 ft 465 kts 336°
2026-04-23 15:13 -8.53887 -51.64433 36013 ft 464 kts 336°
2026-04-23 15:14 -8.48125 -51.67377 36011 ft 464 kts 336°
2026-04-23 15:14 -8.42403 -51.70298 36006 ft 464 kts 336°
2026-04-23 15:15 -8.36649 -51.73239 36005 ft 463 kts 336°
2026-04-23 15:15 -8.30899 -51.76178 36005 ft 463 kts 335°
2026-04-23 15:16 -8.25152 -51.79115 36007 ft 463 kts 335°
2026-04-23 15:16 -8.19400 -51.82050 36011 ft 463 kts 335°
2026-04-23 15:17 -8.13649 -51.84974 36011 ft 463 kts 336°
2026-04-23 15:17 -8.07824 -51.87838 36008 ft 462 kts 337°
2026-04-23 15:18 -8.01978 -51.90533 36009 ft 462 kts 338°
2026-04-23 15:18 -7.96125 -51.93205 36008 ft 462 kts 338°
2026-04-23 15:19 -7.90329 -51.95895 36005 ft 462 kts 338°
2026-04-23 15:19 -7.84497 -51.98623 36004 ft 462 kts 337°
2026-04-23 15:20 -7.79618 -52.00901 36005 ft 461 kts 337°
2026-04-23 15:20 -7.72847 -52.04060 36004 ft 461 kts 337°
2026-04-23 15:21 -7.67024 -52.06771 36005 ft 461 kts 337°
2026-04-23 15:21 -7.61196 -52.09482 36008 ft 461 kts 337°
2026-04-23 15:22 -7.55379 -52.12200 36005 ft 461 kts 337°
2026-04-23 15:22 -7.49561 -52.14919 36004 ft 460 kts 338°
2026-04-23 15:23 -7.43746 -52.17620 36004 ft 460 kts 338°
2026-04-23 15:23 -7.37932 -52.20313 36003 ft 460 kts 338°
2026-04-23 15:24 -7.32124 -52.23014 36000 ft 460 kts 337°
2026-04-23 15:24 -7.26323 -52.25721 36000 ft 459 kts 338°
2026-04-23 15:25 -7.20516 -52.28419 35998 ft 459 kts 338°
2026-04-23 15:25 -7.15700 -52.30653 36000 ft 459 kts 337°
2026-04-23 15:26 -7.08930 -52.33804 35994 ft 458 kts 337°
2026-04-23 15:26 -7.03147 -52.36495 35994 ft 458 kts 337°
2026-04-23 15:27 -6.97364 -52.39182 35990 ft 457 kts 338°
2026-04-23 15:27 -6.91590 -52.41863 35987 ft 457 kts 338°
2026-04-23 15:28 -6.85812 -52.44536 35984 ft 457 kts 338°
2026-04-23 15:28 -6.81015 -52.46758 35984 ft 457 kts 337°
2026-04-23 15:29 -6.75234 -52.49445 35982 ft 458 kts 337°
2026-04-23 15:29 -6.69449 -52.52130 35986 ft 458 kts 337°
2026-04-23 15:30 -6.63666 -52.54813 35987 ft 458 kts 337°
2026-04-23 15:30 -6.57885 -52.57490 35984 ft 458 kts 337°
2026-04-23 15:31 -6.52095 -52.60171 35986 ft 458 kts 337°
2026-04-23 15:31 -6.46312 -52.62859 35985 ft 458 kts 337°
2026-04-23 15:32 -6.40524 -52.65543 35993 ft 458 kts 337°
2026-04-23 15:32 -6.34731 -52.68221 35993 ft 458 kts 337°
2026-04-23 15:33 -6.28930 -52.70900 35996 ft 458 kts 337°
2026-04-23 15:33 -6.23138 -52.73583 35995 ft 458 kts 337°
2026-04-23 15:34 -6.17346 -52.76265 35998 ft 458 kts 337°
2026-04-23 15:34 -6.11554 -52.78944 35997 ft 458 kts 337°
2026-04-23 15:35 -6.05763 -52.81625 35994 ft 458 kts 337°
2026-04-23 15:35 -5.99968 -52.84306 35992 ft 458 kts 337°
2026-04-23 15:36 -5.94179 -52.86984 35993 ft 458 kts 337°
2026-04-23 15:36 -5.88386 -52.89665 35991 ft 458 kts 337°
2026-04-23 15:37 -5.82602 -52.92334 35993 ft 458 kts 337°
2026-04-23 15:37 -5.76807 -52.95012 35994 ft 458 kts 337°
2026-04-23 15:38 -5.71022 -52.97690 35996 ft 458 kts 337°
2026-04-23 15:38 -5.65234 -53.00359 35993 ft 458 kts 337°
2026-04-23 15:39 -5.59446 -53.03024 35996 ft 458 kts 337°
2026-04-23 15:39 -5.53659 -53.05694 35993 ft 458 kts 337°
2026-04-23 15:40 -5.47869 -53.08376 35995 ft 458 kts 337°
2026-04-23 15:40 -5.42091 -53.11051 35994 ft 458 kts 337°
2026-04-23 15:41 -5.36292 -53.13719 35996 ft 459 kts 337°
2026-04-23 15:41 -5.30490 -53.16390 35994 ft 459 kts 337°
2026-04-23 15:42 -5.24679 -53.19068 35997 ft 460 kts 337°
2026-04-23 15:42 -5.18860 -53.21753 35993 ft 460 kts 337°
2026-04-23 15:43 -5.13024 -53.24448 35994 ft 461 kts 337°
2026-04-23 15:43 -5.07191 -53.27132 35995 ft 462 kts 337°
2026-04-23 15:44 -5.01381 -53.29803 35997 ft 462 kts 337°
2026-04-23 15:44 -4.95535 -53.32499 35997 ft 463 kts 337°
2026-04-23 15:45 -4.89686 -53.35192 35995 ft 463 kts 337°
2026-04-23 15:45 -4.83830 -53.37885 35991 ft 463 kts 336°
2026-04-23 15:46 -4.77988 -53.40583 35991 ft 463 kts 336°
2026-04-23 15:46 -4.72134 -53.43281 35993 ft 463 kts 336°
2026-04-23 15:47 -4.66272 -53.45975 35993 ft 463 kts 336°
2026-04-23 15:47 -4.60416 -53.48669 35994 ft 463 kts 336°
2026-04-23 15:48 -4.54565 -53.51361 35995 ft 463 kts 336°
2026-04-23 15:48 -4.48716 -53.54055 35997 ft 463 kts 336°
2026-04-23 15:49 -4.42862 -53.56750 35993 ft 463 kts 336°
2026-04-23 15:49 -4.37009 -53.59438 35992 ft 463 kts 336°
2026-04-23 15:50 -4.31154 -53.62129 35997 ft 463 kts 336°
2026-04-23 15:50 -4.25299 -53.64820 35999 ft 463 kts 336°
2026-04-23 15:51 -4.19440 -53.67509 35999 ft 463 kts 336°
2026-04-23 15:51 -4.13585 -53.70202 36001 ft 463 kts 336°
2026-04-23 15:52 -4.07735 -53.72889 36003 ft 463 kts 336°
2026-04-23 15:52 -4.01887 -53.75581 36008 ft 463 kts 336°
2026-04-23 15:53 -3.96037 -53.78266 36011 ft 463 kts 336°
2026-04-23 15:53 -3.90171 -53.80950 35424 ft 463 kts 336°
2026-04-23 15:53 -3.87246 -53.82292 34955 ft 463 kts 336°
2026-04-23 15:54 -3.84319 -53.83636 34385 ft 463 kts 336°
2026-04-23 15:54 -3.81379 -53.84984 33740 ft 464 kts 336°
2026-04-23 15:54 -3.78441 -53.86331 33033 ft 466 kts 336°
2026-04-23 15:54 -3.75492 -53.87689 32346 ft 467 kts 336°
2026-04-23 15:55 -3.72538 -53.89049 31708 ft 466 kts 336°
2026-04-23 15:55 -3.69636 -53.90384 31112 ft 464 kts 336°
2026-04-23 15:55 -3.66711 -53.91731 30514 ft 461 kts 336°
2026-04-23 15:55 -3.63803 -53.93065 29907 ft 459 kts 337°
2026-04-23 15:56 -3.60909 -53.94389 29217 ft 456 kts 337°
2026-04-23 15:56 -3.58026 -53.95708 28545 ft 454 kts 337°
2026-04-23 15:56 -3.55168 -53.97019 27775 ft 454 kts 337°
2026-04-23 15:56 -3.52294 -53.98336 27117 ft 452 kts 337°
2026-04-23 15:57 -3.49445 -53.99643 26541 ft 449 kts 337°
2026-04-23 15:57 -3.46618 -54.00938 25980 ft 445 kts 337°
2026-04-23 15:57 -3.43819 -54.02222 25425 ft 441 kts 337°
2026-04-23 15:57 -3.41056 -54.03491 24884 ft 434 kts 337°
2026-04-23 15:58 -3.38320 -54.04747 24345 ft 430 kts 337°
2026-04-23 15:58 -3.35611 -54.05989 23832 ft 427 kts 337°
2026-04-23 15:58 -3.34075 -54.06692 23527 ft 425 kts 337°
2026-04-23 15:59 -3.31925 -54.07681 23034 ft 422 kts 337°
2026-04-23 15:59 -3.29262 -54.08899 22420 ft 419 kts 337°
2026-04-23 16:00 -3.26699 -54.10235 21819 ft 412 kts 330°
2026-04-23 16:00 -3.24264 -54.11685 21268 ft 405 kts 330°
2026-04-23 16:00 -3.21843 -54.13125 20736 ft 403 kts 330°
2026-04-23 16:00 -3.19439 -54.14554 20216 ft 401 kts 330°
2026-04-23 16:01 -3.17053 -54.15972 19711 ft 399 kts 330°
2026-04-23 16:01 -3.14671 -54.17389 19209 ft 397 kts 330°
2026-04-23 16:01 -3.12303 -54.18799 18711 ft 395 kts 330°
2026-04-23 16:01 -3.09946 -54.20202 18244 ft 393 kts 330°
2026-04-23 16:02 -3.07603 -54.21593 17732 ft 390 kts 330°
2026-04-23 16:02 -3.05270 -54.22977 17225 ft 388 kts 330°
2026-04-23 16:02 -3.02955 -54.24352 16732 ft 386 kts 330°
2026-04-23 16:02 -3.00656 -54.25715 16236 ft 383 kts 330°
2026-04-23 16:03 -2.98392 -54.27061 15752 ft 372 kts 330°
2026-04-23 16:03 -2.96183 -54.28376 15288 ft 369 kts 331°
2026-04-23 16:03 -2.93982 -54.29685 14842 ft 367 kts 331°
2026-04-23 16:03 -2.91792 -54.30986 14431 ft 365 kts 331°
2026-04-23 16:04 -2.89626 -54.32272 14031 ft 359 kts 331°
2026-04-23 16:04 -2.87505 -54.33529 13648 ft 349 kts 331°
2026-04-23 16:04 -2.85449 -54.34750 13253 ft 339 kts 331°
2026-04-23 16:04 -2.83440 -54.35945 12837 ft 332 kts 331°
2026-04-23 16:05 -2.82132 -54.36721 12537 ft 328 kts 330°
2026-04-23 16:05 -2.79542 -54.38259 11943 ft 319 kts 330°
2026-04-23 16:05 -2.77662 -54.39378 11520 ft 309 kts 330°
2026-04-23 16:05 -2.75843 -54.40460 11116 ft 303 kts 330°
2026-04-23 16:06 -2.74021 -54.41540 10717 ft 305 kts 330°
2026-04-23 16:06 -2.72192 -54.42623 10312 ft 306 kts 330°
2026-04-23 16:06 -2.70363 -54.43708 10022 ft 303 kts 330°
2026-04-23 16:06 -2.68582 -54.44767 9906 ft 293 kts 330°
2026-04-23 16:07 -2.66855 -54.45793 9789 ft 283 kts 330°
2026-04-23 16:07 -2.65165 -54.46797 9431 ft 283 kts 330°
2026-04-23 16:07 -2.63482 -54.47799 9050 ft 278 kts 330°
2026-04-23 16:07 -2.61849 -54.48770 8688 ft 269 kts 330°
2026-04-23 16:08 -2.60268 -54.49709 8312 ft 260 kts 330°
2026-04-23 16:08 -2.58734 -54.50621 7896 ft 254 kts 330°
2026-04-23 16:08 -2.57216 -54.51523 7423 ft 253 kts 330°
2026-04-23 16:08 -2.55727 -54.52408 6962 ft 252 kts 330°
2026-04-23 16:09 -2.54219 -54.53302 6500 ft 252 kts 330°
2026-04-23 16:09 -2.52718 -54.54192 6014 ft 251 kts 330°
2026-04-23 16:09 -2.51219 -54.55079 5521 ft 250 kts 330°
2026-04-23 16:09 -2.49730 -54.55957 5094 ft 246 kts 332°
2026-04-23 16:10 -2.48131 -54.56484 4664 ft 241 kts 352°
2026-04-23 16:10 -2.46472 -54.56680 4183 ft 240 kts 355°
2026-04-23 16:10 -2.44811 -54.56901 3658 ft 241 kts 351°
2026-04-23 16:10 -2.43175 -54.57191 3310 ft 235 kts 346°
2026-04-23 16:11 -2.42155 -54.57563 3143 ft 228 kts 333°
2026-04-23 16:11 -2.40906 -54.58452 2911 ft 223 kts 314°
2026-04-23 16:11 -2.39982 -54.59709 2678 ft 222 kts 296°
2026-04-23 16:11 -2.39511 -54.61142 2431 ft 220 kts 277°
2026-04-23 16:12 -2.39506 -54.62651 2186 ft 216 kts 259°
2026-04-23 16:12 -2.39750 -54.64120 2012 ft 211 kts 259°
2026-04-23 16:12 -2.39980 -54.65522 1992 ft 196 kts 260°
2026-04-23 16:12 -2.40186 -54.66808 1976 ft 179 kts 259°
2026-04-23 16:13 -2.40376 -54.67996 1977 ft 166 kts 259°
2026-04-23 16:13 -2.40736 -54.70142 1741 ft 148 kts 257°
2026-04-23 16:13 -2.40901 -54.71148 1567 ft 145 kts 258°
2026-04-23 16:14 -2.41062 -54.72134 1387 ft 143 kts 259°
2026-04-23 16:14 -2.41224 -54.73118 1195 ft 143 kts 260°
2026-04-23 16:14 -2.41380 -54.74094 1007 ft 141 kts 260°
2026-04-23 16:14 -2.41539 -54.75056 826 ft 139 kts 261°
2026-04-23 16:15 -2.41695 -54.76010 634 ft 140 kts 262°
2026-04-23 16:15 -2.41876 -54.76956 438 ft 137 kts 261°
2026-04-23 16:15 -2.42025 -54.77901 323 ft 136 kts 265°
2026-04-23 16:15 -2.42167 -54.78821 206 ft 126 kts 263°
2026-04-23 16:16 -2.42315 -54.79674 553 ft 126 kts 262°
2026-04-23 16:16 -2.42492 -54.80598 1087 ft 148 kts 260°
2026-04-23 16:16 -2.42650 -54.81764 1305 ft 190 kts 263°
2026-04-23 16:16 -2.42780 -54.83187 1506 ft 217 kts 268°
2026-04-23 16:17 -2.42385 -54.84664 2195 ft 227 kts 301°
2026-04-23 16:17 -2.41206 -54.85714 3046 ft 233 kts 335°
2026-04-23 16:17 -2.39612 -54.86014 3708 ft 238 kts
2026-04-23 16:17 -2.38064 -54.85510 3912 ft 234 kts 33°
2026-04-23 16:18 -2.36885 -54.84417 3974 ft 231 kts 58°
2026-04-23 16:18 -2.36278 -54.82947 3980 ft 229 kts 75°
2026-04-23 16:18 -2.35828 -54.81417 3953 ft 230 kts 75°
2026-04-23 16:18 -2.35378 -54.79884 3753 ft 228 kts 75°
2026-04-23 16:19 -2.34935 -54.78374 3564 ft 224 kts 74°
2026-04-23 16:19 -2.34500 -54.76894 3374 ft 220 kts 75°
2026-04-23 16:19 -2.34072 -54.75439 3177 ft 216 kts 75°
2026-04-23 16:19 -2.33650 -54.74010 3038 ft 212 kts 75°
2026-04-23 16:20 -2.33239 -54.72621 2970 ft 204 kts 75°
2026-04-23 16:20 -2.32840 -54.71267 2976 ft 202 kts 75°
2026-04-23 16:20 -2.32444 -54.69920 2975 ft 202 kts 75°
2026-04-23 16:20 -2.32050 -54.68572 2911 ft 202 kts 75°
2026-04-23 16:21 -2.31653 -54.67225 2799 ft 201 kts 75°
2026-04-23 16:21 -2.31260 -54.65892 2662 ft 200 kts 75°
2026-04-23 16:21 -2.30874 -54.64576 2542 ft 193 kts 74°
2026-04-23 16:21 -2.30571 -54.63290 2386 ft 189 kts 89°
2026-04-23 16:22 -2.30835 -54.62032 2235 ft 186 kts 117°
2026-04-23 16:22 -2.31678 -54.61074 2105 ft 185 kts 146°
2026-04-23 16:22 -2.32884 -54.60646 2022 ft 186 kts 175°
2026-04-23 16:22 -2.34166 -54.60799 2001 ft 187 kts 190°
2026-04-23 16:23 -2.35445 -54.61047 1999 ft 188 kts 189°
2026-04-23 16:23 -2.36730 -54.61287 2001 ft 188 kts 189°
2026-04-23 16:23 -2.38011 -54.61543 1995 ft 188 kts 195°
2026-04-23 16:23 -2.39102 -54.62241 1994 ft 190 kts 229°
2026-04-23 16:24 -2.39664 -54.63422 2003 ft 191 kts 259°
2026-04-23 16:24 -2.39867 -54.64726 2002 ft 186 kts 260°
2026-04-23 16:24 -2.40069 -54.65992 2005 ft 183 kts 259°
2026-04-23 16:24 -2.40272 -54.67245 2022 ft 181 kts 259°
2026-04-23 16:25 -2.40473 -54.68495 2016 ft 182 kts 259°
2026-04-23 16:25 -2.40668 -54.69714 1977 ft 168 kts 259°
2026-04-23 16:25 -2.40846 -54.70813 1911 ft 154 kts 259°
2026-04-23 16:25 -2.41015 -54.71850 1777 ft 151 kts 259°
2026-04-23 16:26 -2.41178 -54.72884 1433 ft 150 kts 261°
2026-04-23 16:26 -2.41332 -54.73904 1139 ft 146 kts 261°
2026-04-23 16:26 -2.41486 -54.74896 941 ft 143 kts 262°
2026-04-23 16:26 -2.41661 -54.75860 710 ft 139 kts 259°
2026-04-23 16:27 -2.41851 -54.76809 483 ft 138 kts 262°
2026-04-23 16:27 -2.41988 -54.77748 362 ft 134 kts 265°
2026-04-23 16:27 -2.42148 -54.78662 215 ft 131 kts 265°
2026-04-23 16:27 -2.42268 -54.79446 187 ft 78 kts 261°
2026-04-23 16:28 -2.42329 -54.79818 181 ft 45 kts 260°
2026-04-23 16:28 -2.42371 -54.80071 181 ft 32 kts 261°
2026-04-23 16:28 -2.42398 -54.80228 178 ft 16 kts 259°
2026-04-23 16:28 -2.42440 -54.80279 178 ft 7 kts 215°
2026-04-23 16:29 -2.42446 -54.80297 178 ft 2 kts 278°
2026-04-23 16:29 -2.42426 -54.80317 177 ft 6 kts 354°
2026-04-23 16:29 -2.42405 -54.80272 177 ft 9 kts 79°
2026-04-23 16:29 -2.42389 -54.80184 178 ft 16 kts 81°
2026-04-23 16:30 -2.42366 -54.80040 181 ft 26 kts 80°
2026-04-23 16:30 -2.42331 -54.79828 181 ft 36 kts 81°
2026-04-23 16:30 -2.42291 -54.79588 193 ft 33 kts 79°
2026-04-23 16:30 -2.42256 -54.79375 192 ft 30 kts 80°
2026-04-23 16:31 -2.42223 -54.79180 192 ft 27 kts 81°
2026-04-23 16:31 -2.42197 -54.79008 192 ft 23 kts 80°
2026-04-23 16:31 -2.42171 -54.78857 198 ft 21 kts 80°
2026-04-23 16:31 -2.42174 -54.78749 202 ft 12 kts 127°
2026-04-23 16:32 -2.42230 -54.78701 196 ft 9 kts 137°
2026-04-23 16:32 -2.42261 -54.78671 198 ft 4 kts 136°
2026-04-23 16:32 -2.42267 -54.78665 198 ft 0 kts 136°
2026-04-23 16:32 -2.42271 -54.78661 197 ft 4 kts 136°
2026-04-23 16:33 -2.42287 -54.78647 197 ft 3 kts 137°
2026-04-23 16:33 -2.42311 -54.78624 196 ft 6 kts 137°
2026-04-23 16:33 -2.42352 -54.78590 199 ft 9 kts 157°
2026-04-23 16:33 -2.42368 -54.78588 194 ft 0 kts 172°
2026-04-23 16:34 -2.42381 -54.78583 193 ft 2 kts 151°
2026-04-23 16:34 -2.42388 -54.78578 195 ft 2 kts 141°
2026-04-23 16:34 -2.42401 -54.78564 199 ft 1 kts 133°
2026-04-23 16:35 -2.42406 -54.78559 197 ft 2 kts 134°
2026-04-23 16:35 -2.42412 -54.78552 199 ft 0 kts 131°